Wind_Speed
62 60 59 57 56 56 55 55 55 56 56 56 56 57 57 58 59 59 60 60 59 59 58 58 57 57 56 56 56 56 56 56 56 57 57 57 57 58 58 58 57 56 54 53 53 52 52 51 50 49 48 48 48 49 50 50 50 51 50 48 47 47 47 47 47 48 49 49 50 53 55 55 56 55 54 53 53 51 50 50 50 50 48 46 43
59 57 56 55 54 54 54 54 55 55 55 56 56 57 58 58 59 59 60 59 59 59 58 57 57 56 56 55 55 55 55 55 56 56 56 56 57 57 57 57 57 56 56 55 54 54 53 52 50 49 49 49 50 50 50 51 51 51 52 51 49 49 48 48 48 49 50 50 50 53 55 57 58 58 57 56 54 53 53 53 52 52 51 51 49
56 55 55 55 54 54 54 55 55 55 56 57 57 58 58 59 59 59 59 59 58 58 57 56 56 56 56 55 55 55 54 54 55 55 55 55 56 56 56 57 57 57 57 56 56 55 54 52 51 51 51 52 52 51 51 52 52 53 53 52 51 51 50 49 49 49 50 51 51 53 56 59 59 60 60 58 56 55 55 54 54 53 53 53 53
55 56 56 56 56 56 56 56 56 57 57 58 58 59 59 59 59 59 58 57 57 57 56 56 56 57 56 56 55 55 54 54 54 54 54 55 55 55 56 56 57 57 58 57 57 56 55 54 54 53 54 54 55 54 53 53 53 54 54 54 53 53 52 51 51 51 51 52 52 53 56 60 61 61 61 61 59 57 57 57 56 54 53 53 54
57 57 57 58 57 57 57 57 58 58 59 59 59 59 59 59 59 58 57 56 56 56 56 57 58 58 57 56 55 55 55 54 54 54 55 55 55 56 56 57 57 58 58 58 58 57 57 57 57 57 57 56 56 56 54 54 54 54 55 55 55 55 54 53 52 52 52 52 53 54 55 60 63 63 62 63 62 60 59 59 59 57 54 54 54
58 59 59 59 59 59 58 58 59 59 59 60 60 60 60 59 59 58 57 56 56 56 57 58 59 59 59 58 57 56 56 56 55 55 56 56 56 57 57 57 58 58 59 60 60 61 61 61 61 61 59 58 58 57 57 56 55 55 55 56 56 56 56 56 54 54 54 54 55 55 55 59 63 64 63 63 64 63 61 61 62 60 58 56 55
58 58 59 59 59 58 58 58 59 59 60 60 60 60 59 59 59 58 57 56 57 58 58 59 60 60 60 60 59 58 58 57 57 57 57 57 57 58 58 59 60 60 61 62 63 64 65 65 65 64 62 60 59 59 58 58 58 57 56 56 57 57 57 58 57 55 55 56 56 57 57 59 62 65 65 64 64 65 64 63 64 62 59 58 57
56 56 56 57 57 57 57 58 59 59 59 59 59 59 59 59 58 58 57 57 58 59 60 60 60 60 61 61 61 61 60 59 59 58 58 58 59 59 60 61 63 64 65 66 66 67 67 66 66 65 64 62 61 60 60 60 60 60 59 57 57 58 59 59 59 58 57 57 58 59 59 59 62 65 66 65 64 66 68 66 65 63 60 57 57
54 55 55 56 56 56 57 58 58 58 58 58 58 58 58 58 58 58 58 59 59 60 61 61 61 61 62 62 62 62 62 61 60 60 60 60 61 61 62 63 64 65 66 67 68 68 68 68 67 66 65 64 63 62 61 61 61 62 62 61 59 58 59 61 61 61 60 59 60 62 61 61 63 66 67 67 66 68 70 69 67 66 63 59 57
55 56 56 56 56 56 57 57 58 57 57 57 57 56 57 57 58 58 58 59 60 60 61 61 62 62 63 64 64 63 62 61 59 59 60 61 62 63 64 64 65 66 67 68 69 70 70 70 69 68 67 66 65 64 63 63 62 62 63 63 62 61 60 61 62 63 63 62 62 63 63 62 64 67 69 69 70 69 70 71 70 69 68 64 61
56 57 57 57 56 56 57 57 57 57 57 57 56 56 56 57 57 58 58 59 60 60 61 62 63 64 64 65 65 63 61 58 58 58 59 61 62 63 65 66 66 67 68 69 69 71 71 72 72 71 70 69 67 66 66 65 65 64 64 64 65 64 63 63 63 64 65 64 64 64 65 65 66 68 70 72 73 71 71 72 72 72 71 68 64
58 60 58 56 55 55 56 56 57 57 57 57 56 56 56 57 57 58 58 59 60 61 62 63 64 65 66 65 62 60 58 57 58 58 60 61 62 64 65 66 67 68 69 70 70 71 72 73 74 74 73 72 71 70 69 69 68 68 67 66 66 66 66 65 65 65 66 66 66 66 66 67 68 69 71 74 75 74 73 73 73 74 73 68 64
58 61 60 58 56 56 56 56 57 57 57 57 57 57 57 58 58 59 60 61 62 63 64 65 65 64 63 60 58 58 58 58 59 60 61 62 63 65 66 67 69 70 71 72 72 73 74 75 76 77 77 76 75 74 73 72 72 72 71 70 68 68 68 68 68 67 66 67 68 69 69 69 70 70 71 75 77 77 75 74 75 76 74 68 65
56 59 60 59 59 58 58 58 57 57 57 57 57 57 58 59 59 60 61 62 63 64 64 63 62 61 59 57 57 58 59 60 61 63 64 65 66 67 69 70 71 72 73 74 75 76 77 78 78 79 80 80 79 78 77 76 75 75 74 74 73 72 70 69 69 69 68 68 69 71 72 71 71 72 73 74 76 79 78 77 77 78 76 72 70
54 56 58 58 59 59 59 59 58 58 58 58 58 58 59 60 60 61 62 62 62 62 61 60 59 58 57 58 58 59 61 62 64 65 67 68 69 71 72 73 75 76 77 78 78 79 79 80 81 81 82 82 82 81 79 78 77 76 76 76 76 76 74 72 70 69 70 69 69 72 74 73 71 74 75 74 75 79 81 81 79 79 79 76 74
54 55 56 57 58 58 58 58 57 57 57 57 58 59 59 60 61 61 61 61 60 59 58 58 58 58 58 59 60 62 63 65 66 68 70 71 73 74 76 77 78 79 80 81 81 81 81 81 81 81 80 80 80 80 79 77 76 75 75 76 77 78 77 75 71 69 70 71 70 71 75 76 74 74 77 76 75 77 82 83 82 81 80 78 76
54 54 55 56 57 57 57 57 56 56 56 57 58 59 60 61 61 60 59 58 57 57 58 58 59 60 61 62 64 65 66 68 69 71 72 74 76 78 79 80 81 82 82 82 82 82 81 80 79 79 79 78 78 77 77 75 74 73 73 75 76 77 78 76 73 70 69 71 72 72 74 77 77 76 78 79 77 77 80 82 83 82 82 80 79
54 54 55 56 56 56 56 55 55 56 57 58 59 60 60 61 60 59 58 57 57 58 59 60 61 63 64 66 67 68 70 71 72 73 75 77 78 80 81 81 81 82 82 81 81 81 81 80 79 77 76 76 75 74 73 72 71 71 70 71 73 75 76 76 74 72 69 68 71 73 74 77 79 78 78 80 80 78 77 80 84 85 83 82 81
54 55 56 56 55 55 55 55 55 56 57 58 59 60 61 60 59 58 57 57 58 59 60 62 64 65 67 69 70 72 72 73 74 76 77 78 79 79 80 80 80 80 80 80 80 80 79 79 77 76 74 73 72 71 69 67 66 66 67 67 68 70 73 74 74 73 70 66 69 73 75 76 79 80 80 81 82 79 76 78 84 86 83 82 83
55 55 55 55 55 54 54 55 55 56 57 58 59 60 60 59 58 57 57 58 59 61 63 65 66 68 69 71 73 74 75 76 76 77 77 78 78 78 78 79 79 79 79 78 78 77 76 75 74 73 71 70 69 68 65 63 61 61 61 61 62 65 67 70 70 72 71 67 66 71 74 76 79 82 82 82 82 81 78 77 81 85 85 83 82
55 55 54 54 54 54 54 54 55 56 56 57 58 58 58 58 57 57 58 59 61 63 65 67 68 69 71 72 74 75 76 76 77 77 77 77 77 77 77 77 76 76 75 74 73 72 71 70 69 69 68 67 67 65 63 61 60 58 55 54 56 58 61 64 65 66 69 68 65 67 72 76 79 82 83 83 82 81 80 78 78 83 85 84 81
54 53 52 52 53 53 54 55 55 56 57 57 57 57 57 57 58 59 60 62 64 65 66 67 69 70 72 73 74 75 75 75 76 76 76 76 76 75 74 73 72 71 70 70 69 68 67 66 65 64 63 63 62 61 59 58 59 57 53 50 50 51 54 57 59 61 64 67 65 64 69 74 78 81 83 84 82 81 81 80 78 79 84 86 84
52 51 51 52 53 54 55 55 56 56 57 57 56 56 57 58 59 60 62 63 65 66 67 68 70 71 72 73 73 74 74 75 75 75 74 74 74 72 71 69 68 67 66 66 65 64 63 61 59 57 56 55 55 54 52 52 54 53 50 47 47 46 46 50 54 56 59 62 63 62 65 72 77 81 83 84 84 82 81 81 79 78 81 86 86
50 50 51 53 54 55 56 56 57 56 56 56 56 57 57 59 60 61 62 64 65 67 68 69 71 72 73 73 73 74 74 74 74 73 72 71 70 68 67 66 64 64 64 63 62 60 58 56 54 53 51 50 49 48 45 45 49 49 45 42 43 43 42 43 48 53 55 58 60 61 64 70 76 80 82 83 84 84 82 81 81 79 80 84 86
50 51 52 54 55 55 56 56 56 55 54 55 55 56 57 59 61 62 63 65 67 68 69 70 71 72 72 73 73 73 73 73 72 71 69 68 66 64 63 63 62 62 62 61 60 58 56 54 52 50 48 46 46 44 40 38 41 43 40 38 39 40 39 39 43 49 53 54 56 59 63 68 74 79 81 82 83 85 84 82 81 81 80 81 84
51 52 53 54 55 55 55 55 54 53 53 54 55 57 58 60 62 63 65 66 68 69 70 70 71 71 72 72 72 71 70 69 68 67 65 63 63 62 62 62 62 62 62 62 61 59 57 55 53 51 48 45 44 43 40 37 35 35 35 35 35 36 36 36 40 46 50 51 52 56 61 66 72 78 81 81 83 85 85 83 82 82 81 80 84
52 53 54 55 55 54 53 53 52 53 53 54 56 58 59 61 63 65 66 67 68 68 69 70 71 71 71 70 69 67 66 65 63 62 61 61 61 62 62 62 62 62 63 63 63 61 59 56 54 51 48 44 40 38 37 36 34 31 30 30 32 33 33 35 39 44 46 47 49 53 59 64 70 76 80 80 81 83 84 84 83 83 82 81 83
53 54 54 54 54 53 52 52 52 53 54 55 57 59 61 63 64 65 66 66 67 68 69 69 70 70 69 68 66 64 62 60 58 58 58 59 59 61 62 62 62 61 61 61 61 60 57 55 52 50 48 45 40 36 34 33 32 30 28 27 28 30 31 34 38 41 43 44 46 51 56 62 68 74 78 79 79 81 83 84 84 84 84 83 82
53 54 54 53 53 52 51 52 52 53 55 56 58 60 62 63 65 65 66 66 67 67 67 68 67 67 66 64 62 60 58 56 56 56 56 56 57 58 59 59 59 59 58 58 58 57 54 52 50 48 47 46 43 39 35 32 29 27 26 25 26 27 29 32 36 38 39 41 43 48 53 59 65 71 75 77 78 80 83 85 85 85 85 84 82
53 53 53 52 51 51 51 52 53 54 56 58 60 61 62 63 64 65 65 66 67 67 67 66 64 63 61 59 57 55 54 54 54 54 54 55 55 56 57 57 57 57 57 57 56 54 53 50 48 45 43 42 41 39 35 31 28 25 24 23 23 25 27 30 33 35 36 38 41 45 51 56 62 68 73 76 78 80 82 84 85 85 84 83 82
53 52 51 50 50 51 52 53 55 56 58 59 60 61 62 62 63 64 65 66 66 66 65 63 62 59 57 54 52 52 52 52 52 52 52 52 53 54 55 56 56 56 55 55 54 53 51 48 45 42 39 37 37 36 33 29 26 24 22 22 22 23 26 28 30 32 33 34 38 43 48 53 59 66 71 75 78 79 80 82 84 84 84 83 82
51 50 50 50 51 52 53 55 56 57 58 59 60 60 61 62 63 64 64 64 64 63 62 60 58 55 53 51 51 51 51 51 50 50 50 50 51 52 53 54 55 55 54 53 52 50 48 45 41 39 37 35 34 32 30 27 24 23 21 21 22 23 24 26 28 29 30 32 36 42 46 50 56 63 68 73 77 78 79 81 83 84 84 84 83
49 49 49 50 52 53 55 56 57 57 58 58 59 60 61 62 63 63 63 63 62 60 58 56 53 51 50 50 50 50 50 49 49 48 48 48 49 50 51 52 52 52 52 51 50 47 45 42 39 37 35 33 31 30 28 25 22 21 20 20 20 22 23 25 26 27 28 30 34 39 44 48 54 60 66 71 76 78 79 80 82 84 85 85 84
49 49 50 52 53 55 56 57 57 57 57 58 59 60 61 61 62 62 61 60 59 57 54 51 49 48 48 49 48 48 47 47 47 47 47 47 48 50 51 51 51 50 49 48 48 46 44 41 38 36 35 33 30 28 26 23 21 20 19 19 19 21 22 24 25 26 27 29 32 37 42 47 52 58 63 69 74 78 79 80 82 84 85 85 85
49 51 52 54 55 56 56 56 56 57 57 58 59 60 61 61 61 60 59 57 55 52 50 48 47 47 47 47 46 46 45 45 45 45 45 46 47 49 51 51 51 50 48 47 46 45 43 41 38 35 33 32 30 27 24 21 20 19 18 18 18 20 21 23 24 26 27 28 31 35 40 45 50 55 60 66 72 76 79 81 82 83 85 86 86
51 53 54 55 55 55 55 56 56 57 58 59 59 60 60 60 59 58 56 54 51 48 47 46 46 46 45 44 44 44 44 43 43 43 43 45 46 48 49 49 49 48 47 45 45 44 43 40 38 35 32 30 28 26 23 20 18 18 17 17 18 19 20 22 24 25 26 28 31 34 38 43 48 53 58 63 69 75 79 81 82 83 84 86 87
53 54 54 54 54 55 55 57 57 58 59 59 59 59 59 58 57 55 52 50 47 46 46 46 45 44 43 42 42 41 41 41 41 41 41 42 44 45 46 46 46 46 45 44 43 43 42 40 37 34 32 30 27 25 22 20 17 16 16 16 17 18 19 21 23 25 26 28 30 33 36 40 45 50 55 60 66 72 77 81 83 84 85 87 87
53 53 53 53 54 55 57 58 58 59 59 59 59 58 58 56 54 51 48 46 46 45 45 44 43 42 41 41 40 40 39 39 39 40 40 41 42 44 45 45 45 45 44 43 41 41 41 39 37 34 31 29 27 24 22 19 17 15 15 16 17 17 18 20 23 25 26 28 30 32 34 38 42 47 51 56 62 68 74 79 83 85 86 87 88
52 53 53 54 55 57 58 58 59 59 59 59 58 57 55 53 50 47 45 45 45 44 43 42 41 40 40 40 39 39 38 38 39 40 41 41 42 43 45 45 45 45 44 43 41 40 39 38 37 34 31 29 27 25 22 19 17 15 14 15 16 17 18 20 22 24 26 28 30 31 33 36 40 44 48 53 58 64 70 75 80 84 86 87 88
52 53 54 55 57 58 58 58 59 59 59 58 56 54 52 49 46 45 44 44 43 42 41 40 39 39 39 38 38 37 38 38 39 40 41 41 41 42 44 45 45 44 43 42 41 39 39 38 36 34 31 29 27 25 22 19 17 15 13 14 15 17 18 19 21 24 26 28 30 31 33 35 38 42 46 50 55 60 65 71 76 81 85 87 89
53 54 56 57 58 58 59 59 58 58 58 56 54 51 48 45 44 44 43 42 41 40 39 38 37 37 37 37 36 36 37 38 38 39 40 40 41 42 43 44 45 44 43 41 40 39 38 37 36 35 32 29 27 25 23 20 17 14 13 13 14 16 18 19 21 23 25 28 30 32 33 35 38 40 44 47 51 56 61 67 73 77 82 85 88
54 55 57 58 58 59 59 58 57 56 55 54 51 47 45 44 44 43 41 40 38 37 37 36 36 36 35 35 35 35 36 37 38 38 39 40 40 41 41 43 44 44 43 41 39 38 37 36 35 35 34 31 28 26 25 22 18 15 13 12 13 14 17 19 20 22 25 27 30 32 34 36 38 40 43 45 48 52 57 63 69 75 79 82 86
55 56 58 59 59 59 59 57 55 54 52 50 47 45 44 43 43 41 39 37 36 35 35 35 35 35 34 33 33 34 35 36 37 37 38 39 40 41 41 42 43 43 42 41 38 36 35 34 33 33 33 32 30 28 26 24 21 18 15 13 12 13 15 18 20 22 24 26 29 31 34 36 38 40 43 45 48 51 54 59 65 71 76 80 83
57 58 59 59 60 59 57 55 53 50 48 46 44 44 43 42 41 39 37 36 34 34 34 34 34 33 33 33 33 33 34 35 36 37 37 38 39 41 41 42 42 42 42 40 38 36 34 33 31 30 30 30 30 29 27 25 22 19 17 14 13 12 13 16 19 21 23 25 28 30 33 36 38 41 43 45 47 50 53 57 61 66 72 76 80
58 59 59 59 59 58 56 53 49 46 44 43 43 43 42 41 39 37 36 35 34 33 33 33 32 32 32 32 32 33 34 35 36 36 37 38 39 40 41 42 42 42 42 40 39 37 35 33 32 30 29 29 29 29 28 27 25 22 19 16 14 13 12 14 17 20 22 24 27 29 32 35 38 40 43 45 47 49 52 55 58 63 68 72 77
59 59 59 58 57 55 53 49 45 43 42 42 42 41 40 39 38 36 35 34 33 33 32 32 32 32 32 33 33 33 34 35 36 36 37 38 39 40 41 41 42 42 42 41 39 37 35 33 32 31 29 28 27 27 27 28 27 24 21 18 16 14 13 13 14 17 20 23 26 28 31 34 37 40 42 45 47 49 52 54 57 61 65 69 73
58 58 57 56 54 52 48 45 43 42 42 42 40 39 37 37 36 35 34 34 33 33 32 31 31 32 33 33 34 34 35 35 36 37 38 38 39 40 40 41 41 42 42 42 40 38 36 34 32 31 29 28 27 26 26 26 26 26 24 20 17 15 14 14 14 15 18 21 24 27 30 32 35 38 41 44 47 49 51 54 57 60 63 67 71
55 54 53 51 50 47 45 43 43 42 42 41 39 37 35 35 34 34 34 34 33 33 32 31 31 32 33 34 34 35 36 36 36 37 38 39 39 40 40 40 41 41 42 42 41 40 38 35 33 32 30 29 27 26 25 24 24 25 25 23 20 17 15 14 14 15 16 18 21 24 27 30 33 36 40 43 46 48 51 53 56 59 62 66 69
51 49 48 46 45 44 43 43 42 41 40 39 38 36 34 33 33 33 33 33 33 33 32 32 32 32 33 34 35 36 37 37 38 38 38 39 40 40 40 40 40 41 41 41 41 41 39 37 35 33 32 30 28 27 26 24 24 23 23 23 23 20 18 15 14 15 16 17 19 21 24 28 31 34 37 41 44 47 50 52 54 57 60 63 67
46 44 43 43 42 42 41 41 40 39 38 37 36 35 33 33 32 33 33 33 32 33 34 34 33 33 34 34 35 36 37 38 39 39 39 39 40 40 41 41 40 40 41 41 41 41 41 39 38 35 34 32 30 29 27 25 24 23 22 22 22 22 21 19 17 16 16 16 18 20 22 24 27 31 34 37 41 44 48 51 53 55 58 61 65
42 41 41 41 41 40 39 39 38 37 36 35 35 34 33 32 32 32 32 32 32 33 35 35 35 35 35 35 36 37 38 39 40 40 41 41 41 41 42 42 41 41 41 41 41 41 41 41 40 38 36 34 32 31 29 27 26 24 23 22 22 21 21 21 20 19 18 17 18 19 21 23 25 27 30 34 37 40 44 48 51 54 57 59 62
Wind_Direction
278 278 278 277 278 278 278 279 280 280 281 282 282 283 283 283 284 284 284 284 285 285 286 286 287 287 288 288 288 287 287 286 285 284 283 283 282 283 283 283 283 284 284 283 283 282 281 281 279 277 275 274 273 272 270 269 266 264 262 259 255 253 251 246 242 243 243 239 236 234 232 231 232 233 234 237 240 239 236 234 234 233 232 231 233
278 277 277 277 277 278 279 280 281 282 283 284 284 284 285 285 285 285 285 285 285 286 286 287 288 288 289 289 289 288 287 286 285 284 283 282 281 281 281 282 282 282 283 282 282 281 281 280 278 276 274 273 273 272 270 268 266 264 262 260 256 253 250 247 242 241 243 240 235 231 230 229 231 232 233 234 236 237 236 234 233 234 234 233 231
276 276 277 277 277 278 279 280 281 283 284 285 285 286 286 286 286 286 286 286 286 286 287 287 288 289 289 289 289 288 287 285 284 283 282 281 280 280 280 280 280 281 281 281 281 281 280 279 278 276 275 274 274 272 269 268 266 264 262 260 257 254 250 247 243 240 241 242 237 231 228 228 230 232 233 234 233 234 235 234 232 233 235 235 234
276 276 277 277 278 279 280 281 283 284 285 286 286 287 287 286 286 286 286 285 285 286 287 288 288 289 289 289 288 288 287 285 284 282 281 280 279 279 279 279 279 279 280 280 280 280 279 278 278 278 276 275 274 272 269 267 265 264 262 260 258 255 251 247 244 240 239 241 240 234 228 227 229 231 233 234 233 232 233 233 232 232 234 235 236
277 277 278 279 279 280 282 283 284 285 286 287 287 287 287 287 287 286 285 285 285 286 287 288 288 288 288 288 287 287 286 285 284 282 281 280 279 278 278 278 278 279 279 279 279 279 278 278 279 279 278 276 274 272 270 267 264 263 261 260 258 256 253 249 244 241 238 239 240 237 230 227 228 229 231 234 235 233 232 232 233 233 235 236 236
278 279 279 280 281 282 283 284 285 286 287 288 288 289 288 288 288 287 286 285 285 286 287 287 287 287 288 288 288 287 286 285 284 282 281 279 279 278 278 278 278 278 278 279 279 279 279 279 279 279 278 276 274 273 271 268 265 263 260 259 258 256 254 251 247 242 238 237 238 238 233 228 227 228 229 231 234 235 233 232 232 233 235 237 237
280 281 281 282 282 283 284 285 286 287 288 289 290 290 290 290 289 288 286 285 285 285 286 287 287 288 288 289 289 289 288 287 284 282 280 279 278 278 278 278 278 278 278 278 278 279 279 279 279 279 277 275 273 271 270 269 267 264 261 258 257 255 254 252 249 244 239 237 237 237 235 230 227 227 228 229 232 234 234 232 233 233 235 238 238
282 283 283 283 283 284 285 286 288 289 290 290 291 291 291 290 289 287 285 285 285 285 286 287 288 288 289 290 291 290 290 289 287 284 282 280 278 278 278 278 278 279 279 279 279 280 280 280 279 278 277 275 273 270 268 267 266 265 263 259 256 255 253 252 250 246 241 238 236 236 235 233 229 227 226 227 229 232 232 232 233 234 234 236 237
284 283 283 283 284 285 286 287 288 289 290 291 291 291 291 290 289 287 286 286 286 287 288 289 289 290 290 291 291 291 291 290 288 286 284 283 281 281 280 280 280 281 281 281 281 281 281 281 280 278 277 275 273 270 268 265 264 264 264 262 258 255 252 251 249 247 243 239 236 236 235 233 231 228 226 225 227 229 230 231 233 234 234 233 233
283 283 283 283 285 286 287 288 289 290 291 292 292 292 292 291 290 289 289 288 288 289 290 290 291 291 291 291 292 292 291 290 289 287 286 285 285 284 283 283 283 283 283 283 283 283 283 282 281 279 278 276 274 272 269 267 264 263 262 262 261 257 253 250 248 247 245 241 237 236 235 233 232 230 227 225 225 227 229 231 232 234 234 233 231
283 283 283 285 286 288 288 289 290 291 292 293 293 293 293 292 292 291 291 291 291 291 291 291 291 291 291 292 292 292 291 290 289 288 287 287 286 286 285 285 285 284 284 284 284 283 283 283 282 281 279 278 276 274 272 270 267 264 262 261 260 259 256 252 248 246 244 242 239 236 235 234 233 231 229 226 225 225 227 229 231 233 235 235 233
285 285 285 287 288 289 289 290 291 292 293 293 293 293 293 293 293 292 292 292 292 292 292 292 292 292 292 292 291 291 290 290 289 288 288 287 287 287 286 286 286 285 285 284 284 283 283 283 282 281 280 279 277 275 274 272 270 268 264 261 259 258 256 254 250 246 243 242 240 237 235 233 233 232 230 228 226 224 225 228 230 232 234 235 235
288 288 289 290 290 290 290 291 291 292 292 292 292 293 293 293 292 292 292 292 292 292 292 293 293 293 292 291 290 290 290 291 290 290 289 289 288 288 288 287 287 286 286 285 285 284 283 283 282 282 281 280 278 277 275 273 271 270 268 265 261 258 255 253 252 248 244 241 240 238 235 233 233 233 231 229 228 225 225 226 228 231 233 234 234
288 289 290 292 292 292 292 292 292 292 292 292 292 292 292 292 291 291 291 291 292 292 293 293 293 293 292 291 291 291 291 291 291 291 291 290 290 290 289 289 288 287 287 286 286 285 284 284 283 282 282 281 279 278 276 274 272 270 269 267 264 261 257 253 250 249 246 242 239 238 237 234 232 233 233 231 229 227 225 225 226 229 231 232 232
286 287 288 290 290 291 291 291 292 292 292 292 292 291 291 291 290 290 291 291 292 293 293 293 293 292 292 292 292 292 292 292 292 292 292 292 292 291 291 290 290 289 289 288 287 286 285 284 284 283 282 280 279 278 276 275 273 271 269 267 265 263 259 255 250 247 246 243 239 237 237 235 231 232 233 232 230 228 226 225 225 227 230 230 231
285 285 286 287 288 289 289 289 290 290 290 290 290 290 290 290 290 290 291 292 292 293 293 293 293 293 293 293 293 293 293 293 293 293 294 294 293 293 293 292 292 291 290 289 289 288 287 286 285 283 282 281 280 278 277 275 273 270 268 267 264 262 260 257 252 247 244 243 240 236 236 235 232 231 232 233 230 229 228 226 225 226 228 230 230
286 286 286 286 287 287 287 288 288 288 288 289 289 289 289 289 290 290 291 291 292 293 293 293 293 294 294 294 295 295 294 295 295 295 295 295 294 294 294 293 293 292 292 291 290 290 289 288 286 285 284 283 281 280 278 276 273 270 268 265 263 262 260 258 255 249 244 241 239 236 234 234 233 231 231 232 231 229 229 228 226 225 226 228 229
285 286 286 286 286 286 286 286 287 287 287 288 289 289 289 290 290 290 290 291 292 293 294 294 294 295 295 295 296 296 296 296 296 296 295 295 295 294 294 294 294 294 293 293 292 292 291 290 289 288 286 285 283 281 279 277 275 272 268 265 262 260 259 257 255 252 246 239 237 236 233 232 233 231 229 230 231 230 228 228 228 226 225 227 228
285 286 286 287 286 286 286 286 286 287 288 289 290 290 290 290 290 290 290 291 292 293 294 295 295 296 296 296 296 296 296 296 296 296 296 295 295 295 295 295 295 295 295 295 294 294 293 292 291 291 289 288 286 283 281 279 276 273 270 266 263 260 258 255 253 251 248 241 235 234 232 230 231 231 229 229 230 230 228 227 228 227 226 226 228
287 287 287 287 286 286 286 287 288 289 290 291 291 291 291 290 290 290 290 291 293 294 295 295 296 296 296 296 296 296 297 297 297 297 297 297 297 297 297 297 297 296 296 296 295 295 294 294 293 293 292 290 288 286 284 282 278 274 270 267 263 260 257 254 252 250 248 243 235 231 230 229 229 230 229 228 228 229 228 227 227 227 226 226 228
288 288 287 287 287 287 288 289 289 290 291 291 291 291 290 290 290 290 291 292 293 294 295 295 295 295 295 296 296 297 297 298 298 298 298 298 298 298 298 298 297 297 297 296 296 295 295 295 294 294 294 292 291 289 288 286 282 278 273 268 264 260 257 254 251 248 247 244 237 230 228 228 227 228 229 228 227 227 227 227 227 226 225 225 226
288 288 287 287 288 288 288 289 289 290 290 290 290 290 290 290 291 292 292 293 294 294 294 294 295 295 295 296 297 298 299 299 299 299 299 299 299 299 299 299 298 298 298 297 297 297 296 296 295 294 293 292 290 289 288 286 283 280 277 273 267 261 257 254 251 247 244 243 239 231 226 226 226 226 227 228 227 225 225 226 226 225 224 223 224
288 287 287 287 287 288 288 289 290 290 290 291 291 291 291 291 292 292 293 293 293 294 294 295 296 296 297 298 299 300 300 300 300 301 301 300 301 301 301 300 300 299 299 299 298 298 297 297 297 296 295 294 292 290 288 285 282 280 278 275 270 264 257 252 250 247 243 240 237 231 225 223 224 225 225 225 226 225 224 224 225 225 223 222 222
287 286 287 287 288 288 289 290 291 291 291 291 291 291 291 292 292 292 293 294 294 295 296 297 298 299 300 301 301 302 302 302 302 302 302 302 302 302 302 302 302 302 302 301 301 301 301 302 303 302 300 299 296 293 289 286 283 281 278 274 269 265 258 251 247 245 242 238 235 230 225 221 221 223 224 223 224 225 224 223 223 224 223 222 221
286 286 287 287 289 290 290 290 290 290 290 290 290 291 291 292 293 293 294 295 296 297 298 299 300 301 302 302 303 303 303 304 304 304 304 304 304 304 304 305 305 305 306 306 307 307 308 308 308 307 306 305 303 298 292 285 282 282 280 274 267 263 258 250 243 242 241 238 232 228 224 220 219 221 222 222 222 223 223 222 222 223 223 222 221
285 285 286 287 288 289 289 288 288 289 289 290 290 291 292 293 294 295 296 297 298 299 300 301 301 302 302 303 303 304 304 305 305 305 306 306 307 307 308 308 310 311 312 313 313 313 314 314 314 313 311 310 309 305 298 292 287 284 280 274 267 262 256 248 241 239 239 237 232 227 223 220 218 219 220 220 220 220 222 222 222 222 223 222 221
284 284 285 286 287 288 288 287 288 289 290 291 292 293 294 295 296 297 298 299 300 300 301 302 302 303 303 304 304 305 305 306 306 307 308 309 310 311 312 313 314 315 316 316 315 316 317 317 316 315 313 311 309 306 301 296 293 289 283 275 267 261 254 246 241 239 238 236 230 225 222 220 217 217 219 219 218 219 220 220 221 222 222 223 222
283 284 285 286 287 288 288 288 289 290 291 292 293 294 295 296 297 298 298 299 300 301 302 302 303 304 305 305 306 306 306 307 308 309 310 312 313 314 314 315 315 316 316 316 316 317 317 318 317 317 316 315 313 311 306 301 297 292 286 276 267 259 252 246 242 240 238 234 230 225 222 219 217 216 218 218 218 217 218 219 220 221 221 222 222
284 285 286 287 288 289 289 290 291 291 292 293 294 295 296 296 297 298 299 300 301 302 302 303 304 305 306 307 307 307 308 308 309 311 312 313 314 314 314 314 315 316 317 317 317 317 318 319 320 320 318 315 314 312 310 306 301 294 286 276 267 259 252 247 243 241 238 234 229 225 222 219 217 216 216 217 217 216 216 217 218 220 221 222 222
285 286 287 287 288 289 290 291 291 292 293 294 295 295 296 297 298 299 300 301 302 303 304 305 305 306 307 307 307 308 309 310 311 312 313 314 314 314 314 315 316 318 319 319 319 320 321 322 321 319 316 313 312 311 310 308 303 295 286 276 266 257 251 248 245 242 239 234 228 224 222 219 217 216 216 216 216 215 215 216 217 219 220 221 222
284 285 286 287 288 289 290 291 292 293 294 294 295 295 296 298 299 301 302 303 304 305 305 306 306 307 307 307 307 308 309 310 312 313 314 314 315 315 316 318 319 320 321 321 322 322 321 321 320 319 317 315 312 310 310 307 302 294 285 274 265 256 250 247 245 242 239 233 228 224 221 219 217 216 215 215 215 215 214 215 216 218 220 221 222
284 285 286 288 289 289 290 291 292 293 294 294 295 296 298 300 301 302 303 304 305 306 306 307 307 308 308 308 308 309 310 312 313 314 315 315 316 317 318 320 321 322 323 323 322 321 321 322 322 322 320 319 316 313 311 308 302 293 284 273 264 256 249 246 244 241 237 232 227 224 221 218 216 216 216 215 215 215 214 213 214 216 218 220 221
284 286 287 288 288 289 290 291 292 293 294 295 296 298 300 302 303 304 305 305 306 306 307 307 307 308 308 309 310 311 312 313 314 315 316 317 318 319 320 322 323 324 323 323 322 322 324 325 326 325 324 322 320 316 313 309 302 293 284 273 264 257 250 245 242 239 235 231 227 225 221 217 216 215 215 214 214 214 214 213 213 215 217 219 220
286 287 287 288 288 290 291 292 293 294 295 297 299 300 302 303 304 305 305 306 306 306 307 307 307 308 308 309 310 311 313 314 315 317 318 319 320 321 323 324 324 324 324 325 325 327 328 330 330 329 327 325 323 319 315 311 303 293 283 274 264 257 250 244 240 237 234 230 227 225 222 219 217 216 215 214 214 214 214 213 213 214 216 218 220
286 286 287 288 290 291 292 293 294 295 297 299 300 302 303 304 305 306 306 306 306 306 306 307 307 308 309 310 311 312 314 315 317 318 320 321 323 324 325 326 326 326 328 329 329 329 330 332 333 332 330 328 325 322 317 312 304 294 284 274 264 256 250 244 238 235 232 229 226 224 222 219 218 216 215 215 215 215 215 214 214 214 215 217 219
285 286 288 290 291 292 293 294 295 297 299 301 302 303 304 305 306 306 306 306 306 306 307 308 309 309 310 311 312 314 315 316 318 320 322 324 325 325 326 326 327 329 330 331 331 331 332 333 334 333 332 331 328 325 320 315 307 296 284 273 264 257 251 245 239 234 230 228 226 224 223 221 219 218 216 215 215 215 215 215 215 215 215 217 219
286 288 290 291 292 293 294 295 297 299 300 302 304 305 306 306 306 306 306 306 306 307 308 309 310 310 310 311 312 313 315 316 318 320 322 323 323 324 326 328 330 331 332 333 333 333 333 334 335 335 334 333 332 328 323 318 310 299 286 274 264 257 251 245 239 234 230 228 226 225 224 222 221 220 218 217 216 215 215 216 215 215 216 217 219
288 289 291 292 293 294 295 297 299 300 302 304 305 306 306 306 306 305 305 306 307 308 309 309 309 310 310 311 312 313 315 316 318 320 321 323 325 328 330 332 333 334 334 334 334 334 334 335 336 337 335 334 334 332 327 322 314 303 289 277 266 258 251 246 240 235 230 228 227 226 225 224 223 222 220 219 218 217 217 217 217 217 217 217 218
288 290 291 292 294 295 297 298 300 302 303 305 306 306 306 305 305 305 305 306 308 309 309 309 309 309 310 311 312 314 316 318 319 321 323 326 329 332 333 334 335 336 336 336 336 336 335 336 337 338 337 336 336 335 332 326 319 308 294 281 270 260 252 246 242 237 232 228 226 226 225 224 224 223 222 221 220 219 219 218 218 218 219 219 220
289 290 292 293 295 296 298 300 301 303 304 305 306 305 305 304 304 305 306 307 308 308 308 308 308 309 310 311 313 315 317 318 320 322 325 328 331 334 336 336 337 337 337 337 337 337 337 337 337 338 339 338 337 336 335 331 324 315 301 286 274 264 255 248 243 239 234 230 227 225 225 224 224 224 224 223 222 221 220 220 220 220 220 220 221
290 291 293 294 296 297 299 301 302 304 305 305 305 304 303 303 304 306 307 307 308 307 307 307 307 308 309 311 313 315 317 318 320 323 326 329 332 336 337 338 338 338 338 338 338 338 338 338 338 338 340 340 339 337 336 333 329 321 309 293 279 268 260 252 246 241 238 233 229 226 224 224 224 225 225 225 224 223 222 220 220 221 221 222 222
291 292 294 295 297 298 300 301 302 304 304 304 303 302 302 303 305 306 307 307 306 306 305 305 306 307 309 311 313 314 315 317 320 323 326 329 332 335 338 339 339 339 339 339 339 339 339 340 339 339 339 340 340 339 337 336 333 328 318 304 287 273 264 257 250 245 241 237 233 229 226 225 224 225 225 225 225 225 224 223 222 221 221 222 223
292 293 295 296 298 299 300 301 302 303 303 301 300 301 302 304 305 305 306 305 305 304 304 304 305 306 308 310 312 313 314 317 320 323 326 329 332 334 337 339 339 339 339 340 340 340 340 340 341 340 340 339 340 339 337 336 334 331 325 315 300 283 270 261 255 249 245 241 238 234 231 227 226 225 226 226 225 226 226 226 225 224 223 223 224
292 294 296 297 297 298 299 300 302 301 300 299 300 301 303 304 304 304 304 304 303 302 302 302 303 305 307 309 311 312 314 317 320 322 325 329 331 334 336 338 339 340 340 340 340 340 340 340 341 341 341 340 339 338 337 335 333 331 327 322 312 297 281 268 261 255 249 245 241 239 235 232 229 228 227 227 227 227 226 227 227 227 226 226 226
294 295 295 296 297 298 299 299 299 299 298 298 300 301 302 303 303 303 303 302 301 301 301 302 303 305 307 309 311 312 314 317 320 322 325 328 331 333 335 337 339 340 341 341 341 341 341 341 341 342 341 341 340 338 336 335 333 331 328 324 318 308 294 279 268 261 255 250 246 242 240 237 234 232 230 229 228 228 228 228 228 228 228 228 228
293 294 295 296 296 297 297 297 297 297 297 298 300 301 301 301 302 301 301 300 300 301 301 302 304 305 307 309 311 312 314 317 319 322 325 328 330 332 335 336 338 339 341 341 341 341 341 341 342 342 342 342 341 339 337 334 332 330 328 325 321 314 306 293 279 268 261 256 251 246 243 241 239 237 235 233 231 230 229 229 228 228 229 229 229
292 293 294 295 295 294 295 295 296 297 298 298 299 299 300 300 300 299 299 299 300 301 302 303 304 306 308 309 310 312 314 316 319 322 324 327 329 331 334 335 337 339 340 341 341 341 341 342 342 342 342 341 340 339 337 334 331 328 326 324 321 316 309 301 291 279 268 262 257 252 248 244 242 240 239 237 236 234 233 231 231 230 229 229 230
291 292 293 292 292 292 293 295 296 297 297 297 298 298 298 298 297 297 298 299 300 301 302 303 305 306 307 308 310 312 314 316 318 321 324 326 328 330 332 334 336 337 339 341 341 341 341 341 341 342 341 341 340 338 337 334 331 328 325 322 320 317 312 306 299 290 280 270 263 258 254 250 246 243 242 241 240 239 237 236 234 233 233 232 231
290 290 289 288 289 291 293 294 295 296 296 296 296 297 296 295 295 295 297 299 300 301 302 304 305 306 307 308 310 312 314 316 318 321 323 325 327 329 331 333 334 336 338 339 340 341 342 342 341 341 341 340 340 338 337 334 331 328 324 322 319 317 315 310 304 296 290 282 273 265 260 256 252 249 246 244 243 242 241 240 239 237 236 236 235
286 286 285 286 288 290 292 292 293 293 293 294 294 295 294 294 294 295 297 298 300 301 302 303 304 305 306 308 309 311 314 316 318 320 322 324 325 327 329 331 333 334 336 337 339 340 341 341 341 340 340 339 338 337 336 334 331 328 325 322 319 317 315 312 309 304 297 291 283 276 269 263 258 254 251 248 246 245 244 243 242 241 240 239 238
283 284 285 287 288 289 290 290 291 291 291 291 292 292 293 293 294 295 297 298 300 301 302 303 304 305 306 308 309 311 313 315 318 320 321 323 324 325 327 329 331 332 334 335 337 338 339 340 340 340 339 338 337 336 335 333 331 329 326 323 320 317 314 312 311 308 304 299 292 286 279 272 266 261 257 253 251 249 247 246 245 244 243 242 241
Height
10642 10641 10641 10640 10640 10639 10638 10636 10635 10634 10632 10631 10629 10627 10625 10623 10621 10620 10618 10617 10616 10615 10613 10612 10611 10609 10608 10606 10605 10603 10601 10600 10598 10597 10595 10594 10592 10591 10589 10589 10588 10587 10587 10586 10585 10584 10584 10583 10583 10583 10583 10582 10582 10582 10582 10583 10583 10583 10584 10585 10586 10587 10588 10592 10595 10593 10592 10595 10598 10599 10602 10606 10608 10611 10613 10615 10618 10621 10624 10625 10627 10629 10632 10634 10636
10636 10635 10634 10634 10633 10632 10631 10630 10629 10627 10625 10624 10622 10620 10618 10616 10615 10613 10611 10610 10609 10608 10607 10605 10604 10602 10601 10599 10597 10596 10594 10592 10591 10589 10588 10586 10585 10584 10582 10581 10580 10579 10578 10577 10576 10576 10575 10575 10575 10574 10574 10574 10574 10574 10574 10574 10575 10575 10575 10576 10577 10578 10579 10583 10586 10586 10585 10586 10589 10592 10594 10598 10600 10602 10604 10607 10611 10614 10616 10617 10620 10622 10625 10627 10628
10630 10629 10628 10628 10627 10626 10625 10623 10622 10620 10619 10617 10615 10613 10611 10610 10608 10606 10605 10604 10602 10601 10600 10598 10597 10595 10593 10591 10590 10588 10587 10585 10584 10582 10580 10579 10577 10576 10574 10573 10572 10570 10570 10569 10567 10567 10566 10566 10566 10566 10566 10565 10565 10566 10565 10565 10566 10566 10566 10567 10569 10569 10570 10573 10577 10579 10578 10578 10581 10584 10586 10590 10593 10594 10596 10599 10602 10605 10608 10610 10613 10616 10618 10620 10622
10624 10623 10622 10621 10621 10619 10618 10617 10615 10614 10612 10610 10608 10606 10605 10603 10601 10600 10598 10597 10595 10594 10593 10591 10589 10588 10586 10584 10582 10581 10580 10578 10576 10575 10573 10571 10569 10568 10566 10565 10563 10562 10561 10560 10559 10558 10557 10557 10556 10557 10557 10556 10556 10556 10556 10556 10556 10556 10557 10558 10559 10560 10561 10563 10566 10570 10571 10571 10571 10574 10578 10581 10584 10586 10588 10590 10593 10597 10601 10603 10605 10608 10611 10613 10615
10618 10617 10616 10615 10614 10613 10611 10610 10608 10607 10605 10603 10601 10600 10598 10596 10594 10593 10591 10590 10588 10587 10585 10584 10582 10580 10579 10577 10575 10574 10572 10570 10569 10567 10565 10563 10561 10560 10558 10557 10555 10553 10552 10551 10550 10549 10548 10548 10547 10547 10547 10546 10546 10546 10546 10546 10547 10547 10547 10548 10549 10550 10551 10553 10556 10560 10563 10564 10563 10565 10569 10572 10575 10577 10580 10582 10584 10588 10592 10596 10597 10601 10604 10606 10609
10612 10611 10610 10608 10607 10606 10605 10603 10601 10600 10598 10596 10594 10593 10591 10589 10587 10586 10584 10583 10581 10579 10578 10576 10574 10573 10571 10569 10567 10566 10564 10562 10561 10559 10557 10555 10553 10551 10550 10548 10546 10545 10543 10542 10541 10539 10539 10538 10537 10537 10537 10536 10536 10536 10536 10536 10536 10537 10538 10538 10539 10540 10541 10543 10546 10549 10553 10555 10555 10555 10559 10563 10565 10569 10572 10574 10577 10580 10584 10587 10589 10593 10597 10598 10601
10607 10605 10603 10602 10600 10599 10598 10596 10594 10593 10591 10589 10587 10585 10583 10582 10580 10578 10577 10575 10574 10572 10570 10568 10567 10565 10563 10561 10559 10557 10555 10553 10552 10550 10548 10546 10545 10543 10541 10539 10538 10536 10534 10533 10531 10530 10529 10528 10527 10526 10526 10526 10526 10525 10525 10525 10525 10525 10527 10529 10529 10530 10531 10532 10535 10539 10542 10545 10547 10546 10548 10552 10556 10560 10563 10567 10571 10573 10575 10577 10580 10585 10590 10591 10593
10600 10598 10596 10595 10594 10592 10591 10589 10588 10586 10584 10582 10580 10578 10576 10574 10573 10571 10569 10568 10566 10565 10563 10561 10559 10557 10555 10553 10550 10548 10546 10544 10542 10540 10539 10537 10536 10534 10532 10530 10528 10526 10525 10523 10521 10519 10518 10517 10516 10515 10515 10515 10514 10515 10515 10515 10515 10514 10515 10517 10519 10520 10521 10522 10524 10528 10531 10535 10537 10537 10539 10542 10546 10550 10553 10558 10563 10564 10564 10568 10571 10576 10580 10583 10585
10593 10591 10590 10588 10587 10586 10585 10583 10581 10579 10577 10575 10573 10571 10569 10567 10565 10563 10562 10560 10559 10557 10555 10554 10552 10549 10547 10544 10542 10540 10537 10535 10533 10531 10529 10527 10526 10524 10523 10521 10519 10516 10514 10512 10510 10508 10506 10505 10504 10503 10503 10503 10503 10503 10503 10504 10504 10504 10503 10505 10507 10509 10510 10511 10513 10516 10519 10524 10526 10527 10530 10533 10536 10539 10543 10548 10552 10553 10555 10559 10564 10567 10570 10574 10577
10587 10585 10583 10582 10582 10580 10578 10576 10574 10573 10571 10568 10566 10564 10562 10560 10558 10556 10555 10553 10552 10550 10548 10546 10544 10541 10539 10536 10533 10531 10529 10526 10524 10522 10520 10518 10516 10514 10512 10510 10509 10506 10504 10501 10498 10496 10494 10492 10491 10490 10490 10491 10491 10491 10491 10491 10492 10493 10493 10493 10494 10497 10499 10501 10502 10504 10507 10512 10514 10517 10521 10524 10525 10527 10532 10537 10540 10543 10547 10551 10555 10557 10559 10564 10568
10580 10578 10577 10577 10576 10574 10572 10570 10568 10566 10564 10561 10559 10557 10555 10553 10551 10549 10548 10546 10544 10542 10540 10538 10536 10533 10530 10527 10524 10522 10519 10517 10515 10513 10511 10509 10507 10505 10503 10500 10498 10496 10493 10491 10489 10486 10483 10480 10479 10478 10477 10477 10478 10478 10478 10478 10478 10480 10481 10482 10482 10484 10486 10488 10490 10492 10495 10499 10503 10506 10510 10514 10514 10516 10521 10525 10528 10533 10538 10541 10545 10547 10550 10556 10561
10573 10571 10570 10571 10570 10568 10565 10563 10561 10559 10556 10554 10552 10550 10549 10547 10545 10542 10541 10539 10537 10535 10532 10530 10527 10524 10521 10519 10516 10513 10510 10508 10506 10504 10502 10500 10498 10495 10493 10490 10487 10485 10483 10480 10478 10476 10473 10469 10467 10465 10464 10464 10464 10465 10465 10465 10465 10465 10467 10469 10470 10471 10473 10475 10477 10480 10483 10487 10491 10494 10498 10502 10503 10505 10509 10513 10517 10523 10527 10531 10536 10538 10541 10548 10553
10567 10563 10562 10563 10562 10560 10558 10557 10555 10552 10550 10548 10546 10544 10542 10540 10538 10535 10533 10531 10529 10527 10525 10522 10519 10516 10513 10510 10507 10505 10502 10499 10497 10494 10492 10490 10488 10485 10482 10480 10477 10474 10472 10469 10467 10464 10462 10458 10455 10452 10450 10449 10449 10450 10451 10451 10451 10451 10451 10453 10455 10457 10459 10461 10464 10467 10471 10475 10479 10482 10485 10489 10493 10495 10497 10501 10506 10512 10517 10522 10526 10528 10533 10540 10544
10562 10558 10555 10554 10553 10552 10551 10549 10547 10545 10543 10541 10539 10537 10535 10533 10531 10528 10526 10524 10522 10519 10517 10514 10510 10507 10504 10502 10499 10497 10494 10491 10488 10485 10482 10480 10477 10474 10471 10468 10466 10463 10460 10457 10455 10452 10449 10447 10443 10440 10437 10435 10434 10434 10435 10436 10437 10437 10436 10437 10438 10440 10443 10446 10450 10454 10458 10462 10467 10470 10472 10477 10483 10484 10484 10489 10496 10501 10506 10511 10515 10518 10524 10529 10531
10558 10554 10551 10548 10547 10545 10544 10542 10540 10538 10536 10534 10532 10530 10528 10525 10523 10521 10519 10517 10514 10512 10509 10506 10503 10500 10497 10494 10492 10489 10486 10483 10479 10476 10473 10469 10466 10463 10460 10456 10453 10450 10447 10444 10442 10439 10436 10433 10430 10427 10423 10421 10418 10418 10419 10420 10421 10421 10422 10421 10421 10422 10424 10428 10435 10441 10444 10448 10453 10458 10459 10464 10471 10473 10473 10478 10485 10489 10494 10499 10503 10508 10513 10517 10521
10551 10549 10546 10543 10541 10539 10538 10536 10534 10531 10529 10527 10525 10523 10520 10518 10516 10514 10512 10509 10507 10504 10501 10498 10495 10493 10490 10487 10484 10481 10478 10475 10471 10468 10464 10460 10455 10451 10448 10444 10440 10437 10433 10430 10426 10424 10421 10419 10416 10412 10409 10406 10403 10402 10402 10404 10405 10406 10406 10405 10404 10404 10405 10410 10417 10425 10429 10433 10439 10445 10447 10450 10457 10461 10462 10466 10473 10477 10480 10486 10493 10499 10503 10508 10513
10545 10542 10540 10537 10535 10533 10532 10529 10527 10525 10522 10519 10517 10515 10513 10511 10509 10506 10504 10502 10500 10497 10494 10491 10488 10485 10482 10479 10475 10472 10469 10466 10463 10459 10455 10450 10445 10440 10436 10432 10427 10423 10419 10416 10412 10408 10405 10402 10400 10397 10394 10391 10388 10386 10385 10386 10387 10389 10390 10389 10388 10387 10388 10392 10399 10406 10413 10419 10425 10430 10434 10437 10443 10449 10451 10454 10460 10464 10468 10476 10484 10489 10493 10498 10504
10538 10536 10533 10531 10529 10527 10525 10523 10520 10518 10515 10512 10510 10508 10506 10504 10501 10499 10497 10495 10492 10490 10487 10484 10480 10477 10473 10470 10467 10464 10460 10457 10454 10450 10446 10441 10436 10430 10425 10420 10416 10411 10406 10402 10398 10394 10390 10386 10383 10381 10379 10376 10373 10370 10369 10370 10371 10371 10372 10372 10372 10372 10372 10375 10381 10387 10395 10404 10410 10414 10420 10424 10428 10434 10439 10442 10446 10452 10459 10468 10472 10476 10483 10490 10495
10531 10529 10526 10524 10522 10520 10518 10516 10514 10511 10508 10506 10503 10501 10499 10496 10494 10492 10490 10488 10485 10482 10479 10476 10473 10469 10465 10461 10458 10455 10451 10448 10445 10441 10436 10430 10425 10420 10415 10410 10405 10400 10395 10390 10385 10381 10376 10372 10368 10365 10363 10360 10357 10355 10353 10355 10355 10354 10354 10355 10356 10356 10357 10359 10364 10369 10377 10387 10395 10399 10405 10411 10414 10420 10426 10429 10433 10440 10450 10457 10459 10465 10475 10481 10484
10524 10522 10520 10517 10515 10513 10511 10509 10507 10505 10502 10499 10497 10494 10491 10489 10487 10485 10483 10481 10478 10475 10472 10468 10465 10461 10458 10454 10450 10446 10442 10438 10434 10430 10425 10420 10415 10410 10405 10400 10394 10389 10384 10379 10374 10369 10364 10360 10355 10352 10348 10345 10342 10339 10338 10339 10340 10338 10338 10339 10340 10340 10341 10343 10347 10353 10360 10369 10378 10385 10391 10397 10401 10406 10411 10417 10422 10430 10439 10445 10449 10456 10464 10470 10474
10517 10515 10513 10511 10509 10507 10505 10503 10501 10498 10496 10493 10490 10487 10484 10482 10479 10478 10476 10474 10471 10468 10465 10461 10458 10454 10450 10446 10442 10438 10433 10429 10424 10420 10415 10409 10404 10399 10395 10390 10385 10379 10374 10369 10364 10359 10355 10350 10346 10341 10337 10333 10328 10326 10325 10324 10323 10322 10323 10325 10325 10326 10327 10329 10333 10339 10345 10352 10361 10371 10378 10383 10388 10393 10398 10404 10412 10419 10427 10434 10439 10446 10454 10460 10466
10510 10508 10506 10504 10502 10500 10498 10496 10494 10492 10489 10486 10483 10480 10477 10474 10472 10470 10469 10466 10463 10460 10457 10454 10450 10447 10442 10438 10434 10429 10424 10419 10414 10410 10405 10399 10394 10389 10385 10380 10375 10369 10364 10359 10354 10349 10345 10341 10337 10332 10328 10323 10318 10315 10314 10312 10309 10308 10310 10312 10313 10314 10315 10317 10320 10326 10331 10336 10345 10357 10365 10371 10375 10380 10385 10392 10400 10408 10416 10423 10429 10436 10443 10449 10456
10504 10502 10500 10498 10496 10494 10492 10490 10487 10485 10482 10479 10476 10473 10470 10467 10465 10463 10461 10458 10455 10452 10449 10446 10442 10438 10434 10429 10425 10420 10415 10410 10405 10400 10395 10389 10383 10379 10374 10370 10365 10359 10355 10350 10344 10340 10335 10332 10328 10323 10318 10313 10308 10305 10304 10301 10297 10296 10298 10300 10301 10302 10304 10307 10309 10312 10317 10323 10332 10342 10352 10359 10363 10368 10373 10380 10388 10396 10405 10412 10418 10425 10431 10437 10445
10497 10496 10494 10492 10490 10488 10485 10483 10481 10478 10475 10472 10469 10466 10463 10460 10458 10456 10454 10451 10447 10444 10441 10437 10433 10428 10424 10419 10415 10410 10405 10400 10394 10389 10384 10379 10374 10369 10364 10359 10355 10350 10344 10339 10334 10330 10325 10322 10318 10313 10308 10304 10299 10295 10294 10292 10287 10286 10288 10290 10290 10291 10294 10297 10299 10301 10305 10312 10320 10329 10338 10345 10351 10355 10362 10369 10377 10385 10393 10401 10408 10414 10420 10427 10436
10491 10490 10488 10486 10483 10481 10479 10477 10474 10472 10469 10466 10463 10460 10457 10454 10451 10449 10446 10443 10439 10435 10432 10428 10424 10419 10415 10410 10405 10400 10395 10390 10384 10379 10374 10369 10365 10360 10355 10350 10345 10340 10334 10328 10323 10319 10315 10311 10308 10303 10299 10295 10290 10285 10284 10284 10280 10278 10279 10280 10281 10282 10285 10287 10290 10292 10295 10301 10309 10316 10324 10332 10339 10344 10350 10358 10367 10374 10382 10390 10398 10404 10411 10419 10427
10485 10483 10482 10480 10478 10476 10473 10470 10468 10466 10463 10460 10457 10454 10451 10447 10444 10441 10439 10435 10431 10427 10423 10419 10415 10411 10407 10402 10397 10392 10387 10381 10376 10370 10366 10361 10356 10351 10346 10341 10335 10330 10324 10318 10312 10308 10304 10301 10297 10293 10289 10287 10283 10277 10274 10274 10273 10272 10272 10272 10273 10274 10276 10279 10281 10283 10286 10292 10299 10307 10313 10321 10328 10334 10339 10347 10355 10363 10371 10381 10388 10394 10402 10410 10416
10479 10477 10476 10474 10472 10470 10467 10464 10462 10460 10457 10454 10451 10447 10444 10441 10437 10434 10431 10428 10424 10420 10415 10410 10406 10402 10398 10394 10389 10385 10379 10374 10369 10363 10358 10354 10348 10342 10337 10332 10327 10322 10316 10310 10304 10299 10296 10292 10288 10284 10281 10279 10277 10273 10269 10267 10266 10266 10266 10265 10266 10267 10269 10271 10273 10275 10279 10284 10291 10297 10303 10310 10317 10324 10330 10338 10347 10355 10363 10372 10379 10386 10393 10400 10405
10473 10471 10469 10468 10465 10463 10461 10458 10456 10454 10451 10448 10445 10441 10438 10434 10430 10427 10424 10421 10417 10413 10409 10403 10398 10393 10388 10385 10381 10377 10372 10367 10363 10358 10353 10348 10342 10336 10330 10326 10322 10317 10312 10305 10299 10294 10291 10287 10282 10277 10272 10269 10268 10266 10264 10262 10260 10260 10260 10259 10260 10261 10263 10264 10266 10269 10273 10277 10283 10289 10295 10301 10308 10316 10323 10331 10340 10348 10355 10363 10370 10376 10382 10389 10396
10466 10464 10463 10461 10459 10456 10454 10452 10450 10448 10445 10442 10438 10435 10431 10427 10424 10420 10417 10413 10410 10406 10401 10397 10392 10387 10381 10377 10373 10369 10365 10361 10357 10353 10348 10343 10338 10333 10327 10322 10317 10313 10308 10302 10296 10290 10286 10282 10278 10273 10268 10263 10260 10259 10258 10257 10255 10255 10254 10254 10254 10256 10257 10258 10260 10263 10267 10272 10278 10283 10288 10294 10301 10308 10316 10324 10331 10339 10346 10353 10360 10366 10373 10380 10387
10460 10458 10456 10455 10452 10450 10448 10446 10444 10441 10439 10436 10432 10428 10424 10421 10417 10414 10410 10405 10401 10397 10393 10389 10385 10381 10376 10371 10367 10362 10359 10355 10351 10347 10343 10339 10334 10328 10323 10318 10312 10307 10302 10297 10291 10285 10280 10277 10274 10270 10265 10260 10256 10254 10253 10252 10251 10250 10249 10249 10250 10251 10252 10253 10255 10258 10262 10267 10273 10277 10282 10288 10295 10301 10309 10316 10323 10330 10338 10345 10353 10359 10366 10372 10379
10453 10452 10450 10448 10446 10444 10442 10440 10437 10435 10433 10429 10425 10422 10418 10414 10411 10407 10403 10398 10393 10389 10385 10381 10377 10373 10370 10366 10362 10358 10354 10351 10347 10343 10339 10334 10329 10323 10318 10312 10307 10303 10298 10292 10286 10282 10277 10273 10269 10265 10261 10257 10253 10251 10249 10248 10246 10246 10245 10245 10245 10246 10247 10249 10251 10254 10258 10263 10267 10271 10275 10282 10288 10293 10300 10307 10314 10322 10330 10338 10346 10353 10358 10364 10370
10447 10446 10444 10442 10440 10438 10436 10434 10432 10429 10426 10423 10419 10415 10412 10408 10404 10400 10396 10391 10386 10382 10378 10374 10370 10366 10363 10359 10356 10352 10349 10345 10342 10338 10334 10329 10325 10320 10314 10309 10303 10298 10293 10288 10283 10278 10274 10270 10266 10261 10257 10254 10250 10247 10246 10244 10243 10242 10242 10242 10242 10243 10244 10245 10247 10250 10254 10258 10262 10265 10269 10276 10281 10286 10293 10299 10306 10314 10322 10330 10338 10344 10349 10354 10360
10441 10440 10438 10436 10434 10432 10430 10428 10426 10423 10420 10416 10413 10409 10405 10401 10397 10393 10388 10384 10379 10375 10372 10368 10364 10361 10357 10353 10349 10346 10343 10340 10336 10333 10329 10325 10320 10315 10311 10306 10301 10295 10290 10284 10279 10274 10270 10266 10262 10258 10254 10251 10247 10244 10242 10241 10240 10239 10238 10238 10239 10239 10240 10242 10244 10247 10250 10254 10257 10260 10265 10270 10274 10280 10286 10292 10299 10306 10314 10322 10329 10334 10339 10345 10350
10435 10434 10432 10430 10428 10426 10424 10421 10419 10416 10413 10410 10406 10403 10399 10394 10390 10386 10381 10377 10373 10369 10366 10363 10359 10356 10352 10348 10345 10342 10338 10335 10332 10328 10324 10320 10315 10310 10306 10301 10297 10292 10287 10281 10275 10270 10266 10262 10259 10255 10251 10247 10245 10242 10240 10238 10237 10236 10235 10235 10236 10236 10237 10239 10241 10243 10246 10250 10253 10256 10260 10265 10269 10274 10280 10286 10292 10299 10306 10313 10320 10326 10331 10336 10341
10429 10428 10426 10424 10422 10420 10417 10414 10412 10409 10406 10403 10400 10396 10391 10387 10383 10379 10375 10371 10367 10363 10360 10357 10354 10351 10347 10344 10340 10337 10334 10331 10328 10324 10320 10316 10311 10306 10301 10296 10292 10287 10282 10277 10272 10267 10263 10260 10256 10253 10249 10245 10242 10240 10238 10236 10234 10233 10233 10233 10233 10233 10234 10236 10238 10240 10242 10246 10249 10252 10256 10260 10264 10269 10274 10280 10286 10292 10299 10305 10312 10318 10323 10328 10332
10423 10421 10420 10418 10415 10413 10410 10407 10405 10403 10400 10396 10393 10388 10384 10380 10376 10372 10368 10364 10361 10358 10355 10352 10349 10346 10342 10339 10336 10333 10330 10327 10324 10320 10317 10313 10308 10304 10299 10294 10289 10284 10280 10275 10270 10265 10261 10257 10254 10251 10247 10244 10240 10238 10235 10234 10232 10231 10230 10230 10230 10231 10232 10233 10235 10237 10239 10242 10245 10248 10251 10255 10259 10264 10268 10274 10279 10285 10291 10298 10304 10310 10315 10320 10324
10416 10415 10413 10411 10409 10406 10403 10401 10398 10396 10393 10389 10385 10381 10377 10373 10369 10365 10362 10358 10355 10352 10349 10346 10343 10341 10338 10335 10333 10330 10327 10324 10321 10318 10315 10312 10308 10303 10298 10293 10287 10282 10277 10273 10268 10263 10258 10255 10252 10248 10245 10242 10239 10236 10233 10232 10230 10229 10228 10228 10228 10228 10229 10231 10232 10234 10236 10238 10241 10244 10247 10251 10255 10259 10263 10268 10273 10278 10283 10289 10295 10301 10306 10311 10315
10410 10408 10406 10404 10402 10399 10396 10394 10391 10388 10385 10382 10378 10374 10370 10366 10363 10359 10356 10353 10350 10347 10344 10341 10338 10336 10334 10331 10329 10326 10324 10321 10318 10315 10312 10309 10304 10299 10294 10289 10284 10279 10275 10271 10266 10262 10257 10253 10250 10246 10243 10240 10237 10235 10232 10230 10229 10227 10226 10225 10225 10226 10227 10228 10229 10231 10233 10235 10237 10240 10243 10247 10250 10254 10259 10263 10268 10273 10277 10282 10287 10292 10297 10302 10306
10404 10402 10400 10398 10395 10392 10390 10387 10384 10381 10378 10375 10371 10367 10364 10360 10357 10354 10351 10348 10345 10342 10339 10336 10334 10332 10329 10327 10324 10322 10319 10316 10314 10311 10308 10304 10300 10295 10291 10286 10282 10277 10272 10268 10264 10260 10255 10251 10248 10245 10242 10239 10236 10233 10231 10229 10227 10226 10224 10224 10223 10223 10224 10225 10227 10228 10230 10231 10234 10236 10239 10243 10246 10250 10254 10258 10262 10267 10272 10276 10281 10286 10290 10295 10299
10397 10395 10393 10391 10388 10385 10383 10380 10377 10374 10371 10368 10364 10361 10358 10355 10352 10349 10346 10343 10340 10337 10335 10332 10330 10328 10325 10323 10321 10318 10315 10312 10310 10307 10303 10300 10297 10293 10288 10283 10279 10275 10270 10266 10262 10258 10254 10250 10246 10243 10240 10237 10234 10232 10230 10228 10225 10224 10223 10222 10221 10221 10222 10223 10224 10225 10227 10228 10230 10233 10235 10238 10241 10245 10249 10252 10256 10261 10265 10270 10274 10279 10283 10287 10291
10391 10389 10386 10384 10381 10378 10376 10373 10371 10367 10364 10361 10358 10355 10352 10349 10347 10344 10341 10339 10336 10333 10331 10329 10326 10324 10322 10319 10317 10315 10312 10309 10306 10303 10300 10297 10293 10290 10286 10281 10277 10272 10268 10264 10260 10256 10252 10248 10244 10241 10238 10236 10233 10231 10229 10226 10224 10223 10221 10220 10220 10219 10219 10220 10221 10222 10224 10225 10227 10229 10231 10234 10236 10239 10243 10247 10251 10254 10258 10262 10267 10271 10275 10279 10283
10385 10382 10379 10377 10374 10372 10369 10367 10364 10361 10358 10354 10351 10349 10347 10344 10341 10339 10337 10334 10332 10330 10327 10325 10323 10321 10318 10316 10314 10312 10309 10307 10304 10301 10298 10294 10291 10288 10284 10280 10275 10271 10267 10263 10259 10255 10251 10247 10243 10239 10236 10234 10231 10229 10227 10225 10223 10221 10220 10219 10218 10217 10217 10217 10218 10219 10220 10222 10224 10225 10227 10229 10232 10234 10237 10240 10244 10248 10252 10255 10259 10262 10266 10270 10274
10378 10375 10372 10370 10367 10365 10362 10360 10358 10355 10352 10348 10345 10343 10341 10339 10336 10334 10332 10330 10328 10326 10324 10322 10320 10317 10315 10313 10311 10309 10306 10304 10301 10298 10295 10291 10288 10285 10282 10278 10274 10270 10265 10261 10258 10254 10250 10247 10243 10239 10236 10232 10230 10227 10225 10223 10222 10220 10218 10217 10216 10216 10215 10215 10215 10216 10217 10218 10220 10222 10223 10225 10227 10229 10231 10234 10237 10241 10244 10248 10252 10255 10258 10261 10265
10371 10368 10366 10363 10360 10358 10356 10354 10352 10349 10346 10343 10340 10338 10336 10334 10332 10330 10328 10326 10324 10323 10321 10319 10316 10314 10312 10310 10308 10306 10303 10301 10298 10295 10292 10289 10285 10282 10278 10275 10272 10268 10264 10260 10256 10253 10249 10246 10243 10239 10236 10232 10229 10226 10224 10222 10220 10218 10217 10216 10214 10214 10213 10213 10213 10213 10213 10214 10216 10217 10219 10221 10222 10224 10226 10229 10231 10234 10237 10240 10244 10247 10251 10254 10257
10363 10361 10358 10356 10353 10351 10349 10347 10346 10343 10340 10338 10335 10333 10331 10328 10327 10325 10324 10322 10321 10319 10317 10315 10313 10311 10309 10307 10305 10303 10300 10298 10295 10293 10290 10286 10283 10279 10275 10272 10269 10266 10262 10258 10254 10250 10247 10244 10241 10238 10235 10232 10229 10226 10223 10220 10218 10217 10215 10214 10213 10212 10211 10210 10210 10210 10210 10211 10212 10213 10214 10216 10218 10219 10221 10223 10225 10227 10230 10233 10236 10239 10243 10246 10249
10356 10354 10351 10349 10346 10344 10342 10340 10339 10337 10335 10333 10331 10328 10326 10324 10322 10320 10319 10318 10316 10315 10313 10311 10309 10307 10305 10303 10301 10299 10297 10295 10292 10289 10287 10283 10280 10277 10273 10269 10266 10262 10259 10256 10252 10249 10245 10242 10239 10236 10233 10231 10228 10225 10222 10220 10217 10215 10214 10212 10211 10209 10209 10208 10208 10207 10207 10207 10208 10209 10210 10211 10213 10214 10216 10218 10219 10221 10223 10226 10228 10231 10234 10237 10240
10350 10347 10345 10342 10339 10337 10336 10334 10333 10331 10329 10327 10326 10324 10322 10320 10317 10316 10315 10313 10312 10311 10309 10307 10305 10303 10301 10299 10297 10295 10293 10291 10289 10286 10283 10280 10277 10274 10271 10267 10264 10260 10257 10253 10250 10246 10243 10240 10237 10235 10232 10229 10227 10224 10222 10219 10216 10214 10212 10210 10209 10208 10206 10205 10205 10204 10204 10204 10204 10204 10205 10206 10208 10209 10210 10212 10214 10215 10217 10219 10221 10223 10225 10228 10231
10343 10341 10339 10336 10333 10331 10330 10328 10327 10325 10323 10321 10320 10319 10318 10316 10314 10312 10311 10309 10308 10306 10305 10303 10302 10300 10298 10296 10294 10291 10289 10287 10285 10283 10280 10277 10274 10271 10268 10265 10261 10258 10254 10251 10247 10244 10241 10238 10235 10233 10230 10228 10225 10223 10221 10218 10216 10213 10211 10208 10207 10205 10204 10203 10202 10201 10201 10200 10200 10200 10201 10201 10202 10204 10205 10206 10207 10209 10211 10213 10214 10216 10218 10220 10222
10337 10335 10333 10330 10328 10326 10325 10323 10321 10320 10318 10316 10315 10314 10313 10312 10310 10309 10307 10305 10303 10302 10300 10299 10298 10296 10294 10292 10290 10288 10285 10283 10281 10279 10276 10273 10270 10268 10265 10262 10258 10255 10252 10248 10245 10241 10238 10235 10233 10230 10228 10225 10223 10221 10219 10217 10214 10212 10210 10207 10205 10203 10202 10200 10199 10198 10198 10197 10197 10196 10196 10196 10197 10198 10199 10200 10201 10202 10204 10205 10207 10209 10211 10212 10214
10330 10328 10327 10325 10323 10321 10320 10318 10316 10315 10313 10311 10310 10309 10309 10308 10306 10305 10303 10301 10299 10298 10296 10295 10294 10292 10290 10288 10286 10284 10281 10279 10276 10274 10272 10269 10267 10264 10261 10258 10255 10252 10249 10246 10242 10239 10236 10233 10230 10227 10225 10223 10220 10218 10216 10214 10212 10210 10208 10206 10203 10201 10199 10197 10196 10195 10195 10194 10193 10193 10192 10192 10192 10192 10193 10193 10194 10195 10197 10198 10199 10201 10203 10204 10206
10324 10322 10321 10319 10318 10316 10315 10313 10312 10310 10309 10307 10306 10305 10304 10303 10302 10300 10299 10297 10295 10294 10292 10290 10289 10287 10286 10284 10282 10280 10277 10275 10272 10270 10267 10265 10262 10259 10257 10254 10251 10249 10246 10243 10239 10236 10233 10230 10227 10224 10222 10220 10217 10215 10213 10212 10210 10208 10206 10204 10201 10199 10197 10195 10193 10192 10191 10190 10190 10189 10188 10188 10187 10187 10187 10187 10188 10189 10189 10190 10191 10193 10194 10196 10197